Погода в Донгене

Нидерланды     51°37′28″N   4°56′11″E
темп.,
°C
ветер,
м/с
пор.,
м/с
влажн.,
%
обл.,
%
осадки,
мм/ч
давл.,
гПа
погр.,
м
8 марта, пн
пн801:00+3ссз227399 0.0 102489
04:000сз229139 0.0 102428
07:00+2зсз118664 0.0 102458
10:00+4сз127494 0.0 1024403
13:00+6с126691 0.0 1024778
16:00+6зсз0269100 0.1 1023711
19:00+4зсз2276100 0.1 102249
22:00+4зсз1274100 0.0 102253
9 марта, вт
вт901:00+3юз3694100 0.1 1022396
04:00+3юз5993100 0.3 1020425
07:00+4зюз61088100 0.9 1020466
10:00+7з5883100 0.2 1019855
13:00+9з686696 0.3 10191200
16:00+9зсз685857 0.0 10181051
19:00+5зсз238129 0.0 1019102
22:00+4юз34850 0.0 101989
10 марта, ср
ср1001:00+3юз37920 0.0 1018171
04:00+3ююз499178 0.0 1017257
07:00+4ююз5137789 0.0 1017519
10:00+7ююз81467100 0.0 1015988
13:00+7юз91466100 0.0 10141089
16:00+5ююз91681100 1.2 1011950
19:00+5ююз91789100 4.6 1008769
22:00+7ююз101889100 2.2 1006734
11 марта, чт
чт1101:00+10юз101989100 2.4 1002869
04:00+11юз111987100 0.2 9991025
07:00+11юз111990100 2.8 9981163
10:00+11зюз12266690 3.4 9972318
13:00+12зюз15245571 3.6 9982552
16:00+11зюз13215494 0.2 9992405
19:00+8зюз11205997 0.4 10011659
22:00+7зюз11206274 0.1 10031643
12 марта, пт
пт1201:00+6зюз9156685 0.2 10071194
04:00+5зюз7147335 0.0 1009844
07:00+4юз6137918 0.0 1010622
10:00+8зюз8136661 0.0 10101385
13:00+10юз9135956 0.1 10091681
16:00+10зюз81361100 0.4 10071600
19:00+8юз51271100 0.6 1005781
22:00+7юз71374100 0.1 10041131